<?xml version="1.0" encoding="UTF-8" standalone="no" ?>
<gpx xmlns="http://www.topografix.com/GPX/1/1" xmlns:xsi="http://www.w3.org/2001/XMLSchema-instance" xsi:schemaLocation="http://www.topografix.com/GPX/1/1 http://www.topografix.com/GPX/1/1/gpx.xsd" version="1.1" creator="VisuGPX - https://www.visugpx.com">
  <metadata>
    <name>Pornichet_PlageBocageOcean_16-22km</name>
    <desc><![CDATA[gnerando idor:7072345_7959838_13291056]]></desc>
  </metadata>
  <trk>
    <name><![CDATA[Pornichet_PlageBocage_19.3km-7959838]]></name>
    <extensions>
      <line xmlns="http://www.topografix.com/GPX/gpx_style/0/2">
        <color>0000FF</color>
        <width>4</width>
      </line>
    </extensions>
    <trkseg>
      <trkpt lat="47.26697" lon="-2.33086">
        <ele>5</ele>
        <time>2023-11-11T06:39:15Z</time>
      </trkpt>
      <trkpt lat="47.2684" lon="-2.32858">
        <ele>8</ele>
        <time>2023-11-11T06:43:56Z</time>
      </trkpt>
      <trkpt lat="47.26773" lon="-2.32378">
        <ele>17</ele>
        <time>2023-11-11T06:51:20Z</time>
      </trkpt>
      <trkpt lat="47.26921" lon="-2.32352">
        <ele>9</ele>
        <time>2023-11-11T06:54:39Z</time>
      </trkpt>
      <trkpt lat="47.27011" lon="-2.32519">
        <ele>5</ele>
        <time>2023-11-11T06:57:52Z</time>
      </trkpt>
      <trkpt lat="47.27035" lon="-2.32451">
        <ele>3</ele>
        <time>2023-11-11T06:59:01Z</time>
      </trkpt>
      <trkpt lat="47.27026" lon="-2.3221">
        <ele>4</ele>
        <time>2023-11-11T07:02:40Z</time>
      </trkpt>
      <trkpt lat="47.26985" lon="-2.32146">
        <ele>6</ele>
        <time>2023-11-11T07:04:00Z</time>
      </trkpt>
      <trkpt lat="47.27017" lon="-2.32034">
        <ele>8</ele>
        <time>2023-11-11T07:05:50Z</time>
      </trkpt>
      <trkpt lat="47.27005" lon="-2.3197">
        <ele>11</ele>
        <time>2023-11-11T07:06:50Z</time>
      </trkpt>
      <trkpt lat="47.27093" lon="-2.31961">
        <ele>8</ele>
        <time>2023-11-11T07:08:47Z</time>
      </trkpt>
      <trkpt lat="47.27166" lon="-2.31991">
        <ele>7</ele>
        <time>2023-11-11T07:10:29Z</time>
      </trkpt>
      <trkpt lat="47.27221" lon="-2.31923">
        <ele>9</ele>
        <time>2023-11-11T07:12:04Z</time>
      </trkpt>
      <trkpt lat="47.27413" lon="-2.32022">
        <ele>6</ele>
        <time>2023-11-11T07:16:36Z</time>
      </trkpt>
      <trkpt lat="47.27495" lon="-2.31833">
        <ele>6</ele>
        <time>2023-11-11T07:19:59Z</time>
      </trkpt>
      <trkpt lat="47.27699" lon="-2.31026">
        <ele>16</ele>
        <time>2023-11-11T07:32:59Z</time>
      </trkpt>
      <trkpt lat="47.27576" lon="-2.30747">
        <ele>18</ele>
        <time>2023-11-11T07:38:00Z</time>
      </trkpt>
      <trkpt lat="47.27431" lon="-2.30047">
        <ele>28</ele>
        <time>2023-11-11T07:49:03Z</time>
      </trkpt>
      <trkpt lat="47.27282" lon="-2.29726">
        <ele>30</ele>
        <time>2023-11-11T07:54:55Z</time>
      </trkpt>
      <trkpt lat="47.27247" lon="-2.29532">
        <ele>32</ele>
        <time>2023-11-11T07:57:56Z</time>
      </trkpt>
      <trkpt lat="47.27174" lon="-2.29339">
        <ele>29</ele>
        <time>2023-11-11T08:01:17Z</time>
      </trkpt>
      <trkpt lat="47.2711" lon="-2.29241">
        <ele>30</ele>
        <time>2023-11-11T08:03:20Z</time>
      </trkpt>
      <trkpt lat="47.27171" lon="-2.29112">
        <ele>28</ele>
        <time>2023-11-11T08:05:42Z</time>
      </trkpt>
      <trkpt lat="47.27049" lon="-2.2903">
        <ele>30</ele>
        <time>2023-11-11T08:08:41Z</time>
      </trkpt>
      <trkpt lat="47.26921" lon="-2.28966">
        <ele>31</ele>
        <time>2023-11-11T08:11:41Z</time>
      </trkpt>
      <trkpt lat="47.26671" lon="-2.29223">
        <ele>37</ele>
        <time>2023-11-11T08:18:28Z</time>
      </trkpt>
      <trkpt lat="47.26481" lon="-2.29335">
        <ele>40</ele>
        <time>2023-11-11T08:23:01Z</time>
      </trkpt>
      <trkpt lat="47.26324" lon="-2.29258">
        <ele>39</ele>
        <time>2023-11-11T08:26:42Z</time>
      </trkpt>
      <trkpt lat="47.26167" lon="-2.29356">
        <ele>35</ele>
        <time>2023-11-11T08:30:30Z</time>
      </trkpt>
      <trkpt lat="47.26126" lon="-2.29464">
        <ele>33</ele>
        <time>2023-11-11T08:32:22Z</time>
      </trkpt>
      <trkpt lat="47.26184" lon="-2.2958">
        <ele>36</ele>
        <time>2023-11-11T08:34:32Z</time>
      </trkpt>
      <trkpt lat="47.25948" lon="-2.2964">
        <ele>25</ele>
        <time>2023-11-11T08:39:52Z</time>
      </trkpt>
      <trkpt lat="47.25992" lon="-2.29923">
        <ele>19</ele>
        <time>2023-11-11T08:44:15Z</time>
      </trkpt>
      <trkpt lat="47.2598" lon="-2.30133">
        <ele>20</ele>
        <time>2023-11-11T08:47:26Z</time>
      </trkpt>
      <trkpt lat="47.25896" lon="-2.30189">
        <ele>19</ele>
        <time>2023-11-11T08:49:29Z</time>
      </trkpt>
      <trkpt lat="47.2589" lon="-2.30262">
        <ele>20</ele>
        <time>2023-11-11T08:50:35Z</time>
      </trkpt>
      <trkpt lat="47.25709" lon="-2.30206">
        <ele>22</ele>
        <time>2023-11-11T08:54:42Z</time>
      </trkpt>
      <trkpt lat="47.25648" lon="-2.30318">
        <ele>21</ele>
        <time>2023-11-11T08:56:52Z</time>
      </trkpt>
      <trkpt lat="47.25584" lon="-2.30176">
        <ele>26</ele>
        <time>2023-11-11T08:59:26Z</time>
      </trkpt>
      <trkpt lat="47.25485" lon="-2.30202">
        <ele>27</ele>
        <time>2023-11-11T09:01:41Z</time>
      </trkpt>
      <trkpt lat="47.25468" lon="-2.30262">
        <ele>27</ele>
        <time>2023-11-11T09:02:40Z</time>
      </trkpt>
      <trkpt lat="47.25308" lon="-2.30206">
        <ele>28</ele>
        <time>2023-11-11T09:06:19Z</time>
      </trkpt>
      <trkpt lat="47.25069" lon="-2.30133">
        <ele>36</ele>
        <time>2023-11-11T09:11:45Z</time>
      </trkpt>
      <trkpt lat="47.25066" lon="-2.3006">
        <ele>36</ele>
        <time>2023-11-11T09:12:51Z</time>
      </trkpt>
      <trkpt lat="47.2492" lon="-2.30056">
        <ele>37</ele>
        <time>2023-11-11T09:16:06Z</time>
      </trkpt>
      <trkpt lat="47.24865" lon="-2.29841">
        <ele>37</ele>
        <time>2023-11-11T09:19:34Z</time>
      </trkpt>
      <trkpt lat="47.24588" lon="-2.29953">
        <ele>36</ele>
        <time>2023-11-11T09:25:57Z</time>
      </trkpt>
      <trkpt lat="47.24538" lon="-2.2988">
        <ele>35</ele>
        <time>2023-11-11T09:27:31Z</time>
      </trkpt>
      <trkpt lat="47.24463" lon="-2.29816">
        <ele>34</ele>
        <time>2023-11-11T09:29:27Z</time>
      </trkpt>
      <trkpt lat="47.24425" lon="-2.29687">
        <ele>34</ele>
        <time>2023-11-11T09:31:34Z</time>
      </trkpt>
      <trkpt lat="47.24329" lon="-2.29811">
        <ele>34</ele>
        <time>2023-11-11T09:34:25Z</time>
      </trkpt>
      <trkpt lat="47.24314" lon="-2.29897">
        <ele>33</ele>
        <time>2023-11-11T09:35:45Z</time>
      </trkpt>
      <trkpt lat="47.24163" lon="-2.29992">
        <ele>38</ele>
        <time>2023-11-11T09:39:24Z</time>
      </trkpt>
      <trkpt lat="47.24154" lon="-2.29867">
        <ele>43</ele>
        <time>2023-11-11T09:41:18Z</time>
      </trkpt>
      <trkpt lat="47.24084" lon="-2.29837">
        <ele>43</ele>
        <time>2023-11-11T09:42:55Z</time>
      </trkpt>
      <trkpt lat="47.24072" lon="-2.29781">
        <ele>42</ele>
        <time>2023-11-11T09:43:49Z</time>
      </trkpt>
      <trkpt lat="47.24017" lon="-2.29803">
        <ele>40</ele>
        <time>2023-11-11T09:45:05Z</time>
      </trkpt>
      <trkpt lat="47.24005" lon="-2.29562">
        <ele>36</ele>
        <time>2023-11-11T09:48:44Z</time>
      </trkpt>
      <trkpt lat="47.23962" lon="-2.29421">
        <ele>34</ele>
        <time>2023-11-11T09:51:04Z</time>
      </trkpt>
      <trkpt lat="47.23897" lon="-2.29314">
        <ele>32</ele>
        <time>2023-11-11T09:53:14Z</time>
      </trkpt>
      <trkpt lat="47.23886" lon="-2.29176">
        <ele>31</ele>
        <time>2023-11-11T09:55:20Z</time>
      </trkpt>
      <trkpt lat="47.239" lon="-2.2909">
        <ele>30</ele>
        <time>2023-11-11T09:56:40Z</time>
      </trkpt>
      <trkpt lat="47.23877" lon="-2.28949">
        <ele>27</ele>
        <time>2023-11-11T09:58:51Z</time>
      </trkpt>
      <trkpt lat="47.2381" lon="-2.2897">
        <ele>25</ele>
        <time>2023-11-11T10:00:22Z</time>
      </trkpt>
      <trkpt lat="47.2381" lon="-2.28914">
        <ele>23</ele>
        <time>2023-11-11T10:01:13Z</time>
      </trkpt>
      <trkpt lat="47.23777" lon="-2.28907">
        <ele>18</ele>
        <time>2023-11-11T10:01:58Z</time>
      </trkpt>
      <trkpt lat="47.23763" lon="-2.28705">
        <ele>16</ele>
        <time>2023-11-11T10:05:02Z</time>
      </trkpt>
      <trkpt lat="47.2375" lon="-2.28467">
        <ele>8</ele>
        <time>2023-11-11T10:08:38Z</time>
      </trkpt>
      <trkpt lat="47.23803" lon="-2.28289">
        <ele>13</ele>
        <time>2023-11-11T10:11:34Z</time>
      </trkpt>
      <trkpt lat="47.23822" lon="-2.28085">
        <ele>7</ele>
        <time>2023-11-11T10:14:41Z</time>
      </trkpt>
      <trkpt lat="47.23775" lon="-2.27722">
        <ele>8</ele>
        <time>2023-11-11T10:20:16Z</time>
      </trkpt>
      <trkpt lat="47.23819" lon="-2.28111">
        <ele>9</ele>
        <time>2023-11-11T10:26:13Z</time>
      </trkpt>
      <trkpt lat="47.23816" lon="-2.28278">
        <ele>15</ele>
        <time>2023-11-11T10:28:44Z</time>
      </trkpt>
      <trkpt lat="47.23782" lon="-2.28291">
        <ele>10</ele>
        <time>2023-11-11T10:29:31Z</time>
      </trkpt>
      <trkpt lat="47.23759" lon="-2.28364">
        <ele>8</ele>
        <time>2023-11-11T10:30:44Z</time>
      </trkpt>
      <trkpt lat="47.23779" lon="-2.28525">
        <ele>13</ele>
        <time>2023-11-11T10:33:12Z</time>
      </trkpt>
      <trkpt lat="47.23771" lon="-2.28658">
        <ele>16</ele>
        <time>2023-11-11T10:35:13Z</time>
      </trkpt>
      <trkpt lat="47.23763" lon="-2.28883">
        <ele>15</ele>
        <time>2023-11-11T10:38:37Z</time>
      </trkpt>
      <trkpt lat="47.23761" lon="-2.28914">
        <ele>15</ele>
        <time>2023-11-11T10:39:06Z</time>
      </trkpt>
      <trkpt lat="47.23758" lon="-2.28987">
        <ele>17</ele>
        <time>2023-11-11T10:40:12Z</time>
      </trkpt>
      <trkpt lat="47.23734" lon="-2.29039">
        <ele>18</ele>
        <time>2023-11-11T10:41:09Z</time>
      </trkpt>
      <trkpt lat="47.23685" lon="-2.29065">
        <ele>13</ele>
        <time>2023-11-11T10:42:18Z</time>
      </trkpt>
      <trkpt lat="47.23656" lon="-2.29112">
        <ele>14</ele>
        <time>2023-11-11T10:43:16Z</time>
      </trkpt>
      <trkpt lat="47.23589" lon="-2.2912">
        <ele>9</ele>
        <time>2023-11-11T10:44:46Z</time>
      </trkpt>
      <trkpt lat="47.23568" lon="-2.29215">
        <ele>14</ele>
        <time>2023-11-11T10:46:16Z</time>
      </trkpt>
      <trkpt lat="47.23525" lon="-2.29253">
        <ele>9</ele>
        <time>2023-11-11T10:47:23Z</time>
      </trkpt>
      <trkpt lat="47.23475" lon="-2.29262">
        <ele>4</ele>
        <time>2023-11-11T10:48:30Z</time>
      </trkpt>
      <trkpt lat="47.2349" lon="-2.29318">
        <ele>4</ele>
        <time>2023-11-11T10:49:25Z</time>
      </trkpt>
      <trkpt lat="47.23527" lon="-2.29344">
        <ele>11</ele>
        <time>2023-11-11T10:50:19Z</time>
      </trkpt>
      <trkpt lat="47.23519" lon="-2.29421">
        <ele>11</ele>
        <time>2023-11-11T10:51:30Z</time>
      </trkpt>
      <trkpt lat="47.23536" lon="-2.29489">
        <ele>14</ele>
        <time>2023-11-11T10:52:36Z</time>
      </trkpt>
      <trkpt lat="47.2351" lon="-2.29537">
        <ele>9</ele>
        <time>2023-11-11T10:53:31Z</time>
      </trkpt>
      <trkpt lat="47.23583" lon="-2.29571">
        <ele>22</ele>
        <time>2023-11-11T10:55:14Z</time>
      </trkpt>
      <trkpt lat="47.23501" lon="-2.2961">
        <ele>9</ele>
        <time>2023-11-11T10:57:09Z</time>
      </trkpt>
      <trkpt lat="47.23516" lon="-2.297">
        <ele>17</ele>
        <time>2023-11-11T10:58:32Z</time>
      </trkpt>
      <trkpt lat="47.23475" lon="-2.29837">
        <ele>24</ele>
        <time>2023-11-11T11:00:48Z</time>
      </trkpt>
      <trkpt lat="47.23431" lon="-2.29876">
        <ele>16</ele>
        <time>2023-11-11T11:01:57Z</time>
      </trkpt>
      <trkpt lat="47.23338" lon="-2.29854">
        <ele>5</ele>
        <time>2023-11-11T11:04:02Z</time>
      </trkpt>
      <trkpt lat="47.23417" lon="-2.29932">
        <ele>10</ele>
        <time>2023-11-11T11:06:09Z</time>
      </trkpt>
      <trkpt lat="47.23472" lon="-2.29987">
        <ele>13</ele>
        <time>2023-11-11T11:07:38Z</time>
      </trkpt>
      <trkpt lat="47.23536" lon="-2.30022">
        <ele>18</ele>
        <time>2023-11-11T11:09:09Z</time>
      </trkpt>
      <trkpt lat="47.23562" lon="-2.30103">
        <ele>12</ele>
        <time>2023-11-11T11:10:30Z</time>
      </trkpt>
      <trkpt lat="47.23676" lon="-2.30142">
        <ele>16</ele>
        <time>2023-11-11T11:13:06Z</time>
      </trkpt>
      <trkpt lat="47.23723" lon="-2.30253">
        <ele>12</ele>
        <time>2023-11-11T11:15:05Z</time>
      </trkpt>
      <trkpt lat="47.23781" lon="-2.30468">
        <ele>13</ele>
        <time>2023-11-11T11:18:35Z</time>
      </trkpt>
      <trkpt lat="47.23848" lon="-2.30704">
        <ele>10</ele>
        <time>2023-11-11T11:22:26Z</time>
      </trkpt>
      <trkpt lat="47.24023" lon="-2.30944">
        <ele>4</ele>
        <time>2023-11-11T11:27:45Z</time>
      </trkpt>
      <trkpt lat="47.2409" lon="-2.30961">
        <ele>8</ele>
        <time>2023-11-11T11:29:16Z</time>
      </trkpt>
      <trkpt lat="47.24107" lon="-2.31052">
        <ele>4</ele>
        <time>2023-11-11T11:30:42Z</time>
      </trkpt>
      <trkpt lat="47.24308" lon="-2.31459">
        <ele>5</ele>
        <time>2023-11-11T11:38:18Z</time>
      </trkpt>
      <trkpt lat="47.24367" lon="-2.31537">
        <ele>11</ele>
        <time>2023-11-11T11:40:03Z</time>
      </trkpt>
      <trkpt lat="47.24367" lon="-2.317">
        <ele>11</ele>
        <time>2023-11-11T11:42:31Z</time>
      </trkpt>
      <trkpt lat="47.24337" lon="-2.31755">
        <ele>7</ele>
        <time>2023-11-11T11:43:35Z</time>
      </trkpt>
      <trkpt lat="47.24436" lon="-2.31884">
        <ele>10</ele>
        <time>2023-11-11T11:46:31Z</time>
      </trkpt>
      <trkpt lat="47.24489" lon="-2.32009">
        <ele>6</ele>
        <time>2023-11-11T11:48:45Z</time>
      </trkpt>
      <trkpt lat="47.24582" lon="-2.32069">
        <ele>10</ele>
        <time>2023-11-11T11:51:00Z</time>
      </trkpt>
      <trkpt lat="47.24722" lon="-2.32292">
        <ele>7</ele>
        <time>2023-11-11T11:55:36Z</time>
      </trkpt>
      <trkpt lat="47.24911" lon="-2.32755">
        <ele>9</ele>
        <time>2023-11-11T12:03:45Z</time>
      </trkpt>
      <trkpt lat="47.25051" lon="-2.33146">
        <ele>8</ele>
        <time>2023-11-11T12:10:25Z</time>
      </trkpt>
      <trkpt lat="47.25243" lon="-2.33532">
        <ele>5</ele>
        <time>2023-11-11T12:17:39Z</time>
      </trkpt>
      <trkpt lat="47.25412" lon="-2.33734">
        <ele>5</ele>
        <time>2023-11-11T12:22:29Z</time>
      </trkpt>
      <trkpt lat="47.25506" lon="-2.33923">
        <ele>6</ele>
        <time>2023-11-11T12:26:02Z</time>
      </trkpt>
      <trkpt lat="47.25625" lon="-2.34047">
        <ele>5</ele>
        <time>2023-11-11T12:29:16Z</time>
      </trkpt>
      <trkpt lat="47.25669" lon="-2.3418">
        <ele>3</ele>
        <time>2023-11-11T12:31:30Z</time>
      </trkpt>
      <trkpt lat="47.25832" lon="-2.34172">
        <ele>5</ele>
        <time>2023-11-11T12:35:08Z</time>
      </trkpt>
      <trkpt lat="47.25913" lon="-2.3415">
        <ele>1</ele>
        <time>2023-11-11T12:36:58Z</time>
      </trkpt>
      <trkpt lat="47.25972" lon="-2.34116">
        <ele>4</ele>
        <time>2023-11-11T12:38:22Z</time>
      </trkpt>
      <trkpt lat="47.25992" lon="-2.3397">
        <ele>5</ele>
        <time>2023-11-11T12:40:37Z</time>
      </trkpt>
      <trkpt lat="47.2603" lon="-2.33837">
        <ele>3</ele>
        <time>2023-11-11T12:42:48Z</time>
      </trkpt>
      <trkpt lat="47.26074" lon="-2.3385">
        <ele>4</ele>
        <time>2023-11-11T12:43:48Z</time>
      </trkpt>
      <trkpt lat="47.26103" lon="-2.3379">
        <ele>4</ele>
        <time>2023-11-11T12:44:54Z</time>
      </trkpt>
      <trkpt lat="47.26076" lon="-2.33657">
        <ele>3</ele>
        <time>2023-11-11T12:47:00Z</time>
      </trkpt>
      <trkpt lat="47.26135" lon="-2.33528">
        <ele>3</ele>
        <time>2023-11-11T12:49:21Z</time>
      </trkpt>
      <trkpt lat="47.26155" lon="-2.33421">
        <ele>3</ele>
        <time>2023-11-11T12:51:01Z</time>
      </trkpt>
      <trkpt lat="47.26333" lon="-2.33391">
        <ele>2</ele>
        <time>2023-11-11T12:55:01Z</time>
      </trkpt>
      <trkpt lat="47.26475" lon="-2.333">
        <ele>1</ele>
        <time>2023-11-11T12:58:27Z</time>
      </trkpt>
      <trkpt lat="47.26502" lon="-2.33223">
        <ele>3</ele>
        <time>2023-11-11T12:59:46Z</time>
      </trkpt>
      <trkpt lat="47.26583" lon="-2.33172">
        <ele>2</ele>
        <time>2023-11-11T13:01:43Z</time>
      </trkpt>
      <trkpt lat="47.2672" lon="-2.33004">
        <ele>7</ele>
        <time>2023-11-11T13:05:41Z</time>
      </trkpt>
    </trkseg>
  </trk>
</gpx>